This is the latest recevied weather packets stored in our database for station/object OK1KZE-6. If no packets are shown the sender has not sent any weather packets the latest 10 day(s).
| Time | Temp. | Humidity | Pressure | Rain* | Wind** | Luminosity | Snow |
|---|---|---|---|---|---|---|---|
| 1777788308 | 14.44° C | 49% | 1019.2 hPa | - | - | - | - |
| 1777788009 | 14.44° C | 48% | 1019.5 hPa | - | - | - | - |
| 1777787707 | 13.89° C | 53% | 1019.3 hPa | - | - | - | - |
| 1777787407 | 13.89° C | 52% | 1019.2 hPa | - | - | - | - |
| 1777787108 | 13.89° C | 50% | 1019.1 hPa | - | - | - | - |
| 1777786808 | 13.33° C | 50% | 1019.1 hPa | - | - | - | - |
| 1777786508 | 13.33° C | 52% | 1019.1 hPa | - | - | - | - |
| 1777785907 | 12.78° C | 51% | 1019 hPa | - | - | - | - |
| 1777785607 | 12.78° C | 51% | 1019.2 hPa | - | - | - | - |
| 1777785307 | 12.22° C | 51% | 1019.1 hPa | - | - | - | - |
| 1777785008 | 12.22° C | 52% | 1019.2 hPa | - | - | - | - |
| 1777784708 | 12.22° C | 51% | 1019.1 hPa | - | - | - | - |
| 1777784408 | 12.22° C | 52% | 1019.2 hPa | - | - | - | - |
| 1777784107 | 11.67° C | 53% | 1019.2 hPa | - | - | - | - |
| 1777783808 | 11.67° C | 52% | 1018.9 hPa | - | - | - | - |
| 1777783507 | 11.67° C | 51% | 1019.1 hPa | - | - | - | - |
| 1777783207 | 12.22° C | 51% | 1018.9 hPa | - | - | - | - |
| 1777782908 | 11.67° C | 52% | 1019.2 hPa | - | - | - | - |
| 1777782608 | 11.67° C | 52% | 1019 hPa | - | - | - | - |
| 1777782307 | 11.67° C | 52% | 1018.8 hPa | - | - | - | - |
| 1777782008 | 11.67° C | 52% | 1018.7 hPa | - | - | - | - |
| 1777781408 | 11.67° C | 52% | 1018.7 hPa | - | - | - | - |
| 1777781107 | 11.67° C | 52% | 1018.7 hPa | - | - | - | - |
| 1777780807 | 11.67° C | 51% | 1018.6 hPa | - | - | - | - |
| 1777780506 | 11.67° C | 52% | 1018.5 hPa | - | - | - | - |
* Rain since midnight (hover to see other rain measurements)
** Current wind speed in m/s (hover to see current wind gust speed)